EHI
11 8 5 2 2 1 1 1 2 2 2 2 1 0 0 0 0 0 0 0 1 2 1 0 0 0 0 0 1 0 0 0 0 0 0 0 0 0 0 0 0 0 0
9 8 5 3 2 2 2 2 1 1 1 1 0 0 0 0 0 0 0 0 1 2 1 0 0 0 0 0 1 1 0 0 0 0 0 0 0 0 0 0 0 0 0
5 5 4 3 3 3 2 1 1 1 0 0 0 0 0 0 0 0 0 0 1 2 1 0 0 0 0 0 0 1 1 0 0 0 0 0 0 0 0 0 0 0 0
2 2 2 2 2 1 1 1 2 2 2 1 1 0 0 0 0 0 0 0 1 2 1 0 0 0 0 0 0 0 0 0 0 0 0 0 0 0 0 0 0 0 0
1 2 2 2 1 0 0 1 3 3 3 2 1 0 0 0 0 0 0 1 2 3 2 1 0 0 0 0 0 0 0 0 0 0 0 0 0 0 0 0 0 0 0
0 1 1 1 0 0 1 2 3 3 3 1 0 0 0 0 0 0 1 2 3 3 2 1 0 0 0 0 0 0 0 0 0 0 0 0 0 0 0 0 0 0 0
0 0 0 0 0 0 1 3 3 3 2 1 0 0 0 0 0 0 1 2 2 2 1 0 0 0 0 0 0 0 0 0 0 0 0 0 0 0 0 0 0 0 0
1 0 0 0 0 0 2 3 3 3 1 0 0 0 0 0 0 0 0 1 1 1 0 0 0 0 0 0 0 0 0 0 0 0 0 0 0 0 0 0 0 0 0
1 0 0 0 0 0 1 2 2 2 1 0 0 0 0 0 0 0 0 0 0 0 0 0 0 0 0 0 0 0 0 0 0 0 0 0 0 0 0 0 0 0 0
1 0 0 0 0 0 0 1 1 1 1 1 0 0 0 0 0 0 0 0 0 0 0 0 0 0 0 0 0 0 0 0 0 0 0 0 0 0 0 0 0 0 0
0 0 1 0 0 0 0 0 1 2 1 1 0 0 0 0 0 0 0 0 0 0 0 0 0 0 0 0 0 0 0 0 0 0 0 0 0 0 0 0 0 0 0
0 0 0 0 0 0 0 0 1 1 1 0 0 0 0 0 0 0 0 0 0 0 0 0 0 0 0 0 0 0 0 0 0 0 0 0 0 0 0 0 0 0 0
0 0 0 0 1 1 1 0 0 0 0 0 0 0 0 0 0 0 0 0 0 0 0 0 0 0 0 0 0 0 0 0 0 0 0 0 0 0 0 0 0 0 0
0 0 0 0 1 2 1 0 0 0 0 0 0 0 0 0 0 0 0 0 0 0 0 0 0 0 0 0 0 0 0 0 0 0 0 0 0 0 0 0 0 0 0
0 0 0 0 0 1 1 0 0 0 0 0 0 0 0 0 0 0 0 0 0 0 0 0 0 0 0 0 0 0 0 0 0 0 0 0 0 0 0 0 0 0 0
0 0 0 0 0 0 0 0 0 0 0 0 0 0 0 0 0 0 0 0 0 0 0 0 0 0 0 0 0 0 0 0 0 0 0 0 0 0 0 0 0 0 0
0 0 0 0 0 0 0 0 0 0 0 0 0 0 0 0 0 0 0 0 0 0 0 0 0 0 0 0 0 0 0 0 0 0 0 0 0 0 0 0 0 0 0
0 0 0 0 0 0 0 0 0 0 0 0 0 0 0 0 0 0 0 0 0 0 0 0 0 0 0 0 0 0 0 0 0 0 0 0 0 0 0 0 0 0 0
0 0 0 0 0 0 0 0 0 0 0 0 0 0 0 0 0 0 0 0 0 0 0 0 0 0 0 0 0 0 0 0 0 0 0 0 0 0 0 0 0 0 0
0 0 0 0 0 0 0 0 0 0 0 0 0 0 0 0 0 0 0 0 0 0 0 0 0 0 0 0 0 0 0 0 0 0 0 0 0 0 0 0 0 0 0
0 0 0 0 0 0 0 0 0 0 0 0 0 0 0 0 0 0 0 0 0 0 0 0 0 0 0 0 0 0 0 0 0 0 0 0 0 0 0 0 0 0 0
0 0 0 0 0 0 0 0 0 0 0 0 0 0 0 0 0 0 0 0 0 0 0 0 0 1 0 0 0 0 0 0 0 0 0 0 0 0 0 0 0 0 0
0 0 0 0 0 0 0 0 0 0 0 0 0 0 0 0 0 0 0 0 0 0 0 0 0 0 0 0 0 0 0 0 0 0 0 0 0 0 0 0 0 0 0
0 0 0 0 0 0 0 0 0 0 0 0 0 0 0 0 0 0 0 0 0 0 0 0 0 0 0 0 0 0 0 0 0 0 0 0 0 0 0 0 0 0 0
0 0 0 0 0 0 0 0 0 0 0 0 0 0 0 0 0 0 0 0 0 0 0 0 0 0 0 0 0 0 0 0 0 0 0 0 0 0 0 0 0 0 0
0 0 0 0 0 0 0 0 0 0 0 0 0 0 0 0 0 0 0 0 0 0 0 0 0 0 0 0 0 0 0 0 0 0 0 0 0 0 0 0 0 0 0
Wind_Speed
3 4 4 4 3 4 4 4 3 3 3 4 4 4 4 4 4 5 6 6 7 6 6 6 6 6 5 5 5 5 5 5 6 5 4 3 3 5 4 4 4 4 4
3 3 3 3 3 3 3 3 3 3 3 4 4 4 4 4 5 6 7 6 7 7 7 6 7 5 6 6 5 6 5 5 6 6 5 4 4 5 5 5 4 4 4
2 3 3 3 3 3 3 3 2 3 3 3 3 4 4 5 5 6 6 6 7 6 6 7 7 6 7 6 6 6 5 5 5 5 5 4 4 4 4 5 5 4 5
2 2 2 2 3 3 3 2 3 3 4 3 4 4 5 5 5 6 6 6 6 6 6 7 7 7 6 7 6 6 6 6 5 5 5 4 3 4 4 4 4 4 4
3 3 2 2 3 3 3 3 3 3 4 3 4 4 4 5 4 5 6 7 7 7 7 6 6 6 6 6 6 6 6 5 5 4 4 4 4 3 4 4 4 3 4
3 3 2 2 2 2 3 3 3 3 4 4 4 4 5 4 2 3 6 7 7 7 7 6 6 5 5 7 8 8 8 7 6 5 5 5 5 5 4 4 4 4 4
3 3 2 2 2 3 3 2 3 3 4 4 4 4 5 3 2 3 5 7 7 7 7 6 6 4 4 5 5 8 8 8 8 7 7 6 6 5 5 6 5 5 4
3 3 2 2 3 3 3 3 3 3 4 4 4 4 5 3 1 3 6 7 7 7 6 6 6 6 5 5 6 6 6 5 6 7 6 7 6 5 5 6 6 6 6
2 2 2 2 3 3 3 3 3 3 4 4 4 4 5 3 1 3 6 6 5 6 6 5 5 6 2 3 6 6 6 5 5 5 6 6 6 7 6 6 6 6 5
2 2 1 2 3 3 3 4 4 3 4 4 4 4 4 4 2 3 5 5 5 6 5 4 2 4 3 4 5 6 6 6 5 5 5 7 8 7 9 8 7 6 5
2 2 2 2 3 3 3 3 4 4 4 4 4 4 3 3 2 3 4 4 5 6 6 4 2 1 4 5 6 6 6 7 7 7 5 5 5 5 6 7 7 7 7
2 2 1 2 3 2 2 3 4 4 5 4 3 3 2 2 1 1 3 4 6 6 6 5 3 2 4 5 6 6 7 7 7 6 5 5 5 4 4 5 6 7 7
2 1 1 2 2 3 3 3 4 3 4 4 3 3 3 3 1 2 4 5 6 5 5 5 7 7 7 6 7 8 7 6 6 5 5 5 5 4 4 4 5 7 8
1 1 1 1 2 1 3 3 3 3 3 4 4 3 3 3 3 4 4 3 3 4 4 5 6 8 7 7 5 5 5 4 5 5 5 5 5 4 4 5 5 5 6
1 1 1 1 1 2 2 2 3 3 3 4 4 4 4 4 4 6 6 5 5 5 6 5 4 4 3 3 3 3 3 3 4 5 5 5 5 5 5 4 5 5 6
1 1 1 1 1 2 2 2 1 2 1 2 4 5 4 3 5 6 6 6 6 6 5 4 4 5 5 5 4 4 4 4 4 5 5 5 5 5 5 4 5 6 6
1 1 1 2 2 2 2 2 2 1 4 4 4 4 5 5 5 6 7 7 6 5 4 4 4 5 5 5 5 5 5 4 4 4 4 5 5 5 5 5 5 6 6
1 1 1 1 2 3 3 3 3 3 3 1 2 4 5 5 5 6 6 5 4 2 3 4 5 5 5 5 6 6 5 5 4 4 5 5 5 5 5 5 5 6 6
1 1 1 2 2 2 3 3 3 3 3 3 3 1 1 3 5 5 4 3 5 5 4 5 5 5 6 6 5 6 6 5 5 5 5 5 5 6 6 6 6 6 7
1 1 2 3 2 2 3 3 3 3 3 4 4 4 4 4 3 3 2 4 4 5 5 5 5 5 6 6 6 6 6 6 6 6 6 6 6 6 7 7 7 7 6
0 2 3 3 2 3 3 4 4 4 4 4 4 5 5 5 5 5 5 4 5 5 5 5 5 5 5 5 5 7 7 6 6 7 7 7 7 7 6 6 7 7 7
1 1 1 2 3 3 4 4 4 4 4 5 4 4 2 4 4 5 5 5 4 4 5 5 5 5 6 6 6 6 7 7 7 7 8 8 7 7 7 6 6 6 6
2 2 1 2 2 2 2 3 4 4 4 5 5 5 4 5 5 5 5 5 5 5 5 5 5 6 7 6 6 7 7 7 7 8 8 8 7 7 7 7 7 7 6
1 1 2 2 2 2 3 4 4 4 5 5 5 5 5 4 5 6 6 5 5 6 6 6 6 9 10 8 7 6 7 8 10 8 10 9 8 7 7 7 7 8 7
1 1 2 2 2 3 3 4 4 4 5 5 5 5 5 5 5 6 6 6 6 6 7 7 6 7 10 11 10 9 8 8 8 10 10 8 8 8 8 8 7 7 7
1 1 2 2 2 3 3 4 4 5 4 4 4 5 5 5 5 6 6 6 6 6 6 6 8 9 10 9 11 10 8 8 9 10 9 8 8 8 8 7 8 7 6
Wind_Direction
193 197 206 206 201 208 211 209 211 224 233 242 250 257 266 275 282 282 286 290 286 291 292 289 285 286 283 286 282 274 270 270 275 283 284 284 277 274 268 264 254 242 214
193 191 200 208 208 215 217 215 218 233 243 250 260 272 278 283 285 284 287 291 289 290 294 294 290 285 279 278 280 280 279 275 273 281 288 282 274 268 262 260 253 243 244
187 187 199 208 215 224 224 226 231 242 249 257 264 274 279 283 280 280 284 287 288 291 292 290 288 285 281 281 277 280 279 273 267 271 279 281 273 267 264 258 254 250 251
192 201 209 214 226 231 223 222 234 246 252 260 269 273 277 282 283 286 287 286 287 289 287 284 283 283 282 284 282 281 281 279 268 264 270 267 262 257 259 258 252 242 248
198 210 212 222 233 233 229 232 242 249 257 265 273 275 279 280 292 305 298 292 291 289 286 282 283 285 286 282 288 294 289 284 281 276 273 271 269 260 257 264 262 261 257
206 221 220 230 238 243 244 244 251 261 274 276 276 280 284 293 3 311 290 289 289 289 291 292 287 266 254 243 253 265 276 278 287 287 280 277 276 272 269 267 265 263 261
214 229 232 237 251 264 272 270 266 272 276 276 275 277 284 294 296 282 276 279 281 287 291 293 293 300 288 286 258 239 245 244 251 270 280 281 280 274 274 268 265 270 276
218 228 234 243 259 272 278 283 280 279 281 281 281 285 289 292 283 285 285 268 275 284 288 291 292 293 296 304 292 281 275 258 245 246 263 271 275 282 274 272 271 262 257
223 234 240 251 270 274 279 293 290 285 285 283 282 283 289 295 266 271 286 284 285 289 288 291 291 289 315 289 280 286 286 280 252 246 261 273 280 273 273 270 259 252 251
225 236 243 265 279 282 290 292 293 286 280 283 289 287 291 299 276 264 280 286 296 297 296 287 261 272 289 266 271 283 289 293 296 280 251 245 247 242 232 245 258 262 263
218 220 224 253 267 267 283 289 289 291 294 288 290 288 286 286 263 254 271 289 302 306 309 307 319 215 264 265 266 274 283 293 289 280 270 261 247 237 227 223 238 258 265
205 207 231 271 280 288 290 292 294 296 285 275 276 287 293 277 263 266 261 267 290 298 302 311 328 341 291 278 269 276 280 277 270 272 274 274 269 261 253 246 241 247 258
195 226 270 292 292 298 293 293 290 288 294 309 316 326 335 337 337 216 240 253 258 272 297 307 302 292 284 267 246 253 260 261 270 274 276 278 280 284 280 259 247 244 249
209 235 265 271 286 294 297 306 317 323 324 327 330 337 337 337 344 351 338 308 266 260 283 284 264 259 257 266 270 251 253 270 281 285 287 286 285 273 261 263 259 251 250
237 256 260 277 320 305 308 325 323 344 349 323 329 331 328 331 357 351 324 322 325 333 320 299 300 303 304 298 294 298 292 282 272 276 280 280 280 276 272 269 263 259 259
217 247 285 304 325 313 339 5 130 218 209 227 258 284 310 313 308 309 306 298 294 293 292 299 311 313 313 314 312 310 304 302 301 294 288 287 288 287 283 277 272 265 261
258 312 316 329 332 330 342 337 345 190 199 211 224 244 255 284 294 294 296 295 281 263 277 305 314 317 319 322 320 314 312 316 309 297 293 290 289 290 286 278 270 270 269
262 132 283 315 327 330 330 328 333 337 340 349 190 204 227 246 261 276 288 292 291 261 311 321 324 327 327 325 324 322 322 320 317 311 307 301 297 293 292 290 286 285 280
294 4 346 332 313 320 324 326 339 348 342 346 354 34 224 245 235 245 253 298 330 339 339 334 333 333 331 330 328 327 325 325 326 317 309 302 300 298 295 294 290 284 277
159 65 303 307 320 333 331 336 349 356 354 350 356 3 355 330 333 343 324 336 337 343 340 338 338 338 336 335 335 333 327 325 323 317 316 310 303 296 296 295 295 291 283
191 146 210 268 330 347 344 349 354 350 350 350 5 30 349 329 344 353 354 356 353 352 348 341 337 338 338 335 336 333 330 329 330 327 321 315 310 307 304 301 299 295 297
290 296 320 343 352 354 350 348 349 347 348 350 359 27 7 327 353 360 2 1 357 353 348 340 339 344 343 341 341 337 336 337 335 331 324 317 311 306 303 302 300 300 298
274 303 328 341 343 6 330 343 347 348 353 356 359 358 357 0 1 1 360 1 357 354 353 350 343 348 352 345 341 339 339 338 331 323 318 314 312 312 310 309 309 309 308
271 309 336 3 8 1 358 352 349 351 357 2 358 353 357 3 2 2 359 1 360 358 356 353 352 354 353 347 341 346 354 343 328 317 315 310 309 310 311 311 309 309 306
276 319 348 12 1 359 1 354 354 360 3 4 358 355 359 2 3 5 7 7 2 357 355 354 354 352 351 351 350 351 355 337 325 322 314 309 311 313 314 316 315 312 312
2 8 14 16 10 3 358 359 3 0 1 0 358 1 0 3 8 10 7 3 357 354 351 351 355 354 353 354 359 355 344 333 326 317 311 314 319 323 326 322 322 321 325